Temp
-12 -12 -12 -11 -12 -12 -12 -13 -13 -13 -13 -13 -13 -13 -13 -13 -12 -12 -13 -13 -13 -13 -13 -12 -12 -12 -11 -11 -11 -11 -11 -11 -11 -11 -11 -11 -11 -11 -11 -11 -11 -11 -11 -11 -11 -11 -11 -11 -11 -11 -11 -11 -11 -11 -11 -11 -11 -11 -11 -11 -11 -11 -11 -11 -11 -11 -11 -12 -12 -12 -12 -12 -13 -13
-12 -12 -12 -12 -12 -12 -12 -12 -13 -13 -13 -13 -13 -13 -13 -13 -12 -12 -12 -13 -13 -13 -13 -13 -13 -12 -12 -11 -11 -11 -11 -11 -11 -11 -11 -11 -11 -11 -11 -11 -11 -11 -11 -11 -11 -11 -11 -11 -11 -11 -11 -11 -11 -11 -11 -11 -11 -11 -11 -11 -11 -11 -11 -12 -12 -12 -12 -12 -12 -12 -12 -13 -13 -13
-13 -13 -13 -12 -12 -12 -12 -12 -12 -12 -12 -13 -13 -13 -13 -13 -13 -12 -12 -13 -13 -13 -13 -13 -13 -13 -12 -12 -11 -11 -11 -11 -11 -11 -11 -11 -11 -11 -11 -11 -11 -11 -11 -11 -11 -11 -11 -11 -11 -11 -11 -11 -11 -11 -11 -11 -11 -11 -11 -11 -11 -12 -12 -12 -12 -12 -12 -12 -12 -12 -13 -13 -13 -13
-13 -13 -13 -13 -13 -12 -12 -12 -12 -12 -12 -12 -13 -13 -13 -13 -13 -12 -12 -12 -13 -13 -13 -13 -13 -13 -12 -12 -12 -11 -11 -11 -11 -12 -11 -11 -11 -11 -11 -11 -11 -11 -11 -11 -11 -11 -11 -11 -11 -11 -11 -11 -11 -11 -11 -11 -11 -11 -11 -12 -12 -12 -12 -12 -12 -12 -12 -12 -12 -12 -13 -13 -13 -13
-13 -13 -13 -13 -13 -13 -13 -13 -13 -12 -12 -12 -12 -13 -13 -13 -13 -13 -12 -12 -13 -13 -13 -12 -13 -13 -13 -12 -12 -12 -11 -11 -11 -12 -12 -11 -11 -11 -12 -12 -11 -11 -11 -11 -11 -11 -11 -11 -11 -11 -11 -11 -12 -12 -11 -11 -11 -12 -12 -12 -12 -12 -12 -12 -12 -12 -12 -12 -13 -13 -13 -13 -13 -13
-14 -14 -14 -14 -14 -14 -13 -13 -13 -13 -13 -13 -13 -13 -13 -13 -13 -13 -12 -12 -12 -13 -13 -13 -12 -13 -13 -12 -12 -12 -12 -12 -12 -12 -12 -12 -12 -12 -12 -12 -12 -12 -11 -11 -11 -11 -11 -11 -11 -11 -12 -12 -12 -12 -12 -12 -12 -12 -12 -12 -12 -12 -12 -12 -13 -13 -13 -13 -13 -13 -13 -13 -13 -13
-15 -14 -14 -14 -14 -14 -14 -14 -13 -13 -13 -13 -13 -13 -13 -13 -13 -13 -12 -12 -12 -13 -13 -13 -13 -12 -13 -13 -13 -13 -12 -12 -12 -12 -12 -12 -12 -12 -12 -12 -12 -12 -12 -12 -12 -11 -11 -11 -12 -12 -12 -12 -12 -12 -12 -12 -12 -12 -12 -12 -12 -12 -12 -13 -13 -13 -13 -13 -13 -13 -13 -13 -13 -13
-15 -15 -14 -14 -14 -14 -14 -14 -14 -14 -13 -13 -13 -13 -13 -13 -13 -13 -13 -13 -13 -13 -14 -14 -13 -12 -12 -12 -13 -12 -13 -13 -13 -13 -12 -12 -12 -12 -12 -12 -12 -12 -12 -12 -12 -12 -12 -12 -12 -12 -12 -12 -12 -12 -12 -12 -12 -12 -12 -13 -13 -12 -13 -13 -13 -13 -13 -13 -13 -13 -13 -14 -14 -13
-15 -15 -15 -15 -15 -15 -14 -14 -14 -14 -14 -14 -14 -14 -13 -13 -13 -13 -13 -13 -13 -13 -13 -13 -13 -12 -12 -12 -12 -12 -12 -13 -13 -13 -13 -12 -12 -12 -13 -12 -12 -12 -12 -12 -12 -12 -12 -12 -12 -12 -12 -12 -12 -12 -12 -12 -12 -13 -13 -13 -13 -13 -13 -13 -13 -13 -13 -13 -13 -14 -14 -14 -14 -13
-15 -15 -15 -15 -15 -15 -15 -15 -14 -14 -14 -14 -14 -14 -14 -14 -13 -13 -14 -13 -13 -13 -13 -13 -13 -13 -12 -12 -12 -12 -12 -13 -13 -13 -13 -12 -12 -12 -13 -13 -12 -12 -12 -12 -12 -12 -12 -12 -12 -12 -12 -12 -12 -13 -13 -13 -13 -13 -13 -13 -13 -13 -13 -13 -14 -14 -13 -13 -14 -14 -14 -14 -13 -13
-15 -15 -15 -15 -15 -15 -15 -15 -15 -15 -15 -15 -14 -14 -14 -14 -13 -14 -14 -14 -13 -13 -13 -13 -13 -13 -13 -13 -12 -12 -12 -12 -13 -13 -12 -12 -12 -13 -13 -13 -13 -13 -12 -12 -12 -12 -12 -12 -12 -12 -12 -13 -13 -13 -13 -13 -13 -13 -13 -13 -13 -13 -14 -14 -14 -14 -14 -13 -14 -14 -14 -14 -14 -14
-15 -15 -15 -15 -15 -15 -15 -15 -16 -15 -15 -15 -15 -14 -14 -14 -14 -14 -14 -14 -14 -13 -13 -13 -13 -13 -13 -13 -12 -12 -12 -12 -12 -13 -13 -12 -13 -13 -13 -13 -13 -13 -13 -13 -13 -12 -12 -12 -13 -13 -13 -13 -13 -13 -13 -13 -13 -13 -13 -13 -13 -13 -14 -14 -14 -14 -14 -14 -14 -14 -14 -14 -14 -14
-15 -15 -15 -15 -15 -15 -15 -15 -16 -16 -16 -15 -15 -15 -15 -15 -14 -14 -15 -15 -14 -14 -14 -13 -13 -13 -13 -13 -12 -12 -12 -13 -13 -13 -13 -13 -13 -13 -13 -13 -13 -13 -13 -13 -13 -13 -13 -13 -13 -13 -13 -13 -13 -13 -13 -13 -13 -13 -13 -13 -13 -14 -14 -14 -14 -14 -14 -14 -14 -14 -14 -14 -14 -14
-16 -15 -15 -15 -15 -15 -15 -15 -16 -16 -16 -16 -16 -15 -15 -15 -15 -15 -15 -15 -15 -15 -14 -14 -14 -14 -14 -13 -13 -12 -13 -13 -13 -13 -13 -13 -13 -13 -13 -13 -13 -13 -13 -13 -13 -13 -13 -13 -13 -13 -13 -13 -13 -13 -13 -13 -13 -14 -14 -14 -14 -14 -14 -14 -14 -14 -14 -14 -14 -14 -14 -14 -14 -14
-16 -16 -15 -15 -15 -15 -15 -15 -15 -16 -16 -16 -16 -16 -16 -16 -15 -15 -15 -15 -15 -15 -15 -14 -14 -14 -14 -14 -13 -13 -13 -13 -13 -13 -13 -13 -13 -13 -13 -13 -13 -13 -13 -13 -13 -13 -13 -13 -13 -13 -13 -13 -13 -13 -13 -13 -14 -14 -14 -14 -14 -14 -14 -14 -14 -14 -14 -14 -14 -14 -14 -14 -14 -14
-16 -16 -16 -16 -15 -15 -15 -15 -15 -16 -16 -16 -16 -16 -16 -16 -16 -16 -16 -15 -15 -15 -15 -15 -14 -15 -15 -14 -13 -13 -13 -14 -14 -13 -13 -14 -13 -13 -13 -13 -13 -13 -13 -13 -13 -13 -13 -13 -13 -13 -13 -13 -13 -13 -13 -14 -14 -14 -14 -14 -14 -14 -14 -14 -14 -14 -14 -14 -14 -14 -14 -14 -14 -14
-16 -16 -16 -16 -16 -16 -15 -15 -15 -15 -16 -16 -16 -16 -16 -16 -16 -16 -16 -16 -16 -16 -15 -15 -15 -15 -15 -14 -13 -13 -14 -14 -14 -14 -14 -14 -14 -13 -13 -13 -13 -13 -13 -12 -13 -13 -13 -13 -13 -13 -13 -13 -13 -13 -13 -14 -14 -14 -14 -14 -14 -14 -14 -14 -14 -14 -14 -14 -14 -14 -14 -14 -14 -14
-17 -16 -16 -16 -16 -16 -16 -16 -15 -15 -16 -16 -16 -16 -17 -16 -16 -16 -16 -16 -16 -16 -16 -15 -15 -15 -15 -15 -14 -14 -14 -14 -14 -14 -14 -14 -14 -14 -14 -13 -13 -13 -12 -12 -12 -12 -12 -13 -13 -13 -13 -13 -13 -13 -14 -14 -14 -14 -13 -14 -14 -14 -14 -14 -14 -14 -14 -14 -14 -14 -14 -14 -14 -14
-17 -17 -17 -16 -16 -16 -16 -16 -16 -15 -15 -16 -16 -16 -16 -17 -16 -16 -16 -16 -16 -16 -16 -16 -15 -15 -15 -15 -14 -14 -14 -14 -14 -14 -14 -14 -14 -14 -14 -13 -13 -13 -13 -13 -13 -12 -13 -13 -13 -13 -13 -13 -13 -14 -14 -14 -14 -14 -13 -14 -14 -14 -14 -14 -14 -14 -14 -14 -14 -14 -14 -14 -14 -14
-17 -17 -17 -17 -16 -16 -16 -16 -16 -16 -16 -15 -16 -16 -16 -17 -17 -16 -16 -16 -16 -16 -16 -16 -16 -15 -15 -15 -15 -14 -14 -14 -14 -14 -14 -14 -14 -14 -13 -13 -13 -13 -13 -13 -13 -13 -13 -13 -13 -13 -13 -13 -13 -14 -14 -14 -14 -14 -13 -14 -14 -14 -14 -14 -14 -14 -14 -14 -14 -14 -14 -15 -15 -15
-18 -17 -17 -17 -17 -16 -16 -16 -16 -16 -16 -16 -15 -16 -16 -17 -17 -17 -16 -16 -16 -16 -16 -16 -16 -15 -15 -15 -15 -14 -14 -14 -14 -14 -14 -14 -14 -14 -13 -13 -13 -13 -13 -13 -13 -13 -13 -13 -13 -13 -12 -12 -13 -14 -14 -14 -14 -14 -14 -14 -14 -14 -14 -14 -14 -14 -14 -14 -14 -14 -14 -15 -15 -15
-18 -18 -17 -17 -17 -17 -16 -16 -16 -16 -16 -16 -16 -16 -16 -16 -17 -17 -16 -16 -16 -16 -16 -16 -16 -15 -15 -15 -15 -15 -14 -14 -14 -14 -14 -14 -14 -14 -14 -13 -13 -14 -14 -14 -14 -13 -13 -13 -13 -13 -12 -13 -14 -14 -14 -14 -14 -14 -14 -14 -14 -14 -14 -14 -14 -14 -14 -14 -14 -14 -15 -15 -15 -15
-18 -18 -18 -18 -17 -17 -17 -16 -16 -17 -17 -16 -16 -16 -16 -16 -17 -17 -17 -16 -16 -16 -16 -16 -15 -15 -15 -15 -15 -15 -15 -15 -15 -14 -14 -14 -14 -14 -14 -14 -13 -14 -14 -14 -14 -13 -13 -14 -13 -13 -13 -13 -14 -14 -14 -14 -14 -14 -14 -14 -14 -14 -14 -15 -15 -14 -14 -14 -14 -14 -15 -15 -15 -15
-18 -18 -18 -18 -18 -17 -17 -17 -17 -17 -17 -17 -16 -16 -16 -17 -17 -17 -17 -16 -16 -16 -16 -15 -15 -15 -15 -15 -15 -15 -15 -15 -15 -14 -14 -14 -14 -14 -14 -14 -14 -14 -14 -14 -14 -14 -13 -14 -14 -13 -13 -13 -14 -14 -14 -14 -14 -14 -14 -14 -14 -14 -15 -15 -14 -14 -14 -14 -14 -15 -15 -15 -15 -15
-18 -18 -18 -18 -18 -18 -18 -17 -17 -17 -17 -17 -17 -16 -16 -17 -17 -17 -17 -16 -16 -16 -16 -15 -15 -15 -15 -15 -15 -15 -15 -15 -14 -14 -14 -14 -15 -15 -14 -14 -14 -14 -14 -14 -14 -14 -13 -14 -14 -13 -14 -14 -14 -14 -14 -14 -14 -14 -14 -14 -14 -14 -14 -14 -14 -14 -14 -14 -14 -15 -15 -15 -15 -15
-18 -18 -18 -18 -18 -18 -18 -17 -17 -17 -17 -18 -17 -17 -17 -17 -18 -17 -17 -16 -16 -16 -16 -16 -15 -15 -15 -15 -15 -15 -15 -15 -15 -14 -14 -15 -15 -15 -15 -15 -14 -14 -14 -14 -14 -13 -13 -14 -14 -13 -14 -14 -14 -14 -14 -14 -15 -15 -15 -15 -15 -14 -14 -14 -14 -14 -14 -14 -15 -15 -15 -15 -15 -15
-18 -18 -18 -18 -18 -18 -18 -17 -17 -17 -18 -18 -18 -17 -17 -18 -18 -17 -17 -16 -16 -16 -16 -16 -15 -15 -15 -15 -15 -15 -15 -15 -15 -15 -15 -15 -15 -15 -15 -15 -15 -14 -14 -14 -14 -13 -13 -14 -14 -13 -14 -14 -14 -14 -14 -14 -14 -15 -15 -15 -15 -15 -14 -14 -14 -14 -14 -15 -15 -15 -15 -15 -15 -15
-17 -18 -18 -18 -18 -18 -18 -17 -17 -17 -17 -18 -18 -18 -18 -18 -18 -17 -17 -16 -16 -16 -16 -16 -16 -15 -15 -15 -15 -15 -15 -15 -15 -15 -15 -15 -15 -14 -14 -15 -15 -15 -15 -15 -14 -13 -13 -14 -14 -14 -14 -14 -14 -14 -14 -14 -14 -15 -15 -15 -15 -15 -15 -15 -14 -14 -14 -15 -15 -15 -15 -15 -15 -15
-17 -17 -18 -18 -19 -19 -18 -17 -17 -17 -17 -17 -18 -18 -18 -18 -18 -17 -17 -16 -16 -16 -16 -16 -16 -16 -16 -15 -15 -15 -15 -15 -15 -15 -15 -15 -15 -14 -15 -15 -15 -15 -15 -14 -13 -13 -14 -14 -14 -14 -14 -14 -14 -14 -14 -14 -14 -15 -15 -15 -15 -15 -15 -15 -15 -15 -15 -15 -15 -15 -15 -15 -15 -14
-17 -17 -18 -18 -18 -18 -18 -17 -17 -17 -17 -17 -17 -17 -17 -17 -17 -17 -16 -16 -16 -16 -17 -17 -17 -16 -16 -16 -15 -15 -15 -15 -15 -15 -15 -15 -15 -15 -15 -15 -15 -15 -14 -13 -13 -13 -14 -14 -14 -14 -14 -14 -14 -14 -14 -14 -14 -15 -15 -15 -15 -15 -15 -15 -15 -15 -15 -15 -15 -15 -15 -15 -14 -14
-17 -17 -17 -17 -17 -17 -17 -17 -17 -17 -17 -17 -17 -17 -17 -17 -17 -16 -16 -16 -16 -17 -17 -17 -17 -17 -16 -16 -16 -15 -15 -15 -15 -15 -15 -15 -15 -15 -15 -15 -15 -14 -14 -13 -13 -14 -14 -14 -14 -14 -14 -14 -14 -14 -14 -14 -14 -14 -15 -15 -15 -15 -15 -15 -15 -15 -15 -15 -15 -15 -15 -15 -15 -15
-17 -17 -17 -17 -17 -17 -17 -17 -17 -17 -17 -17 -17 -17 -17 -17 -16 -16 -16 -16 -16 -17 -17 -17 -17 -17 -16 -16 -16 -16 -16 -15 -15 -15 -15 -16 -15 -15 -15 -15 -15 -14 -14 -14 -14 -14 -14 -14 -14 -14 -14 -14 -14 -14 -14 -14 -14 -15 -15 -15 -15 -15 -14 -14 -15 -15 -15 -15 -15 -15 -15 -15 -15 -15
-17 -17 -17 -17 -17 -17 -17 -17 -17 -17 -17 -17 -17 -17 -17 -16 -16 -16 -16 -16 -16 -17 -17 -17 -17 -17 -17 -17 -16 -16 -16 -16 -15 -15 -16 -16 -15 -15 -15 -15 -15 -14 -14 -14 -14 -14 -14 -14 -14 -14 -14 -14 -14 -14 -14 -14 -14 -15 -15 -15 -15 -15 -15 -15 -15 -15 -15 -15 -15 -15 -15 -15 -15 -15
-17 -17 -18 -18 -18 -17 -17 -17 -17 -17 -17 -16 -16 -16 -16 -16 -16 -16 -16 -16 -17 -17 -18 -18 -18 -18 -17 -17 -17 -17 -16 -16 -16 -16 -15 -15 -15 -15 -15 -15 -15 -15 -15 -14 -14 -14 -14 -14 -15 -15 -15 -15 -15 -14 -14 -15 -15 -15 -15 -15 -15 -15 -15 -15 -15 -15 -15 -15 -15 -15 -15 -15 -15 -15
-17 -18 -18 -18 -18 -18 -18 -17 -17 -17 -17 -16 -16 -16 -16 -16 -16 -16 -16 -17 -17 -18 -18 -18 -18 -18 -18 -18 -17 -17 -16 -16 -16 -16 -15 -15 -15 -15 -15 -15 -15 -15 -15 -15 -15 -14 -14 -15 -15 -15 -15 -15 -15 -15 -15 -15 -15 -15 -15 -15 -15 -15 -15 -15 -15 -15 -15 -15 -15 -15 -15 -15 -15 -15
-18 -18 -18 -18 -18 -18 -18 -18 -18 -18 -17 -17 -16 -16 -16 -16 -16 -17 -17 -18 -18 -18 -18 -18 -18 -18 -18 -18 -18 -17 -17 -16 -16 -16 -16 -16 -15 -15 -15 -15 -15 -15 -15 -15 -15 -15 -15 -15 -15 -15 -15 -15 -15 -15 -15 -15 -15 -15 -15 -15 -15 -15 -15 -15 -15 -15 -15 -15 -15 -15 -15 -15 -15 -15
-18 -18 -18 -18 -18 -18 -18 -18 -18 -18 -18 -17 -17 -17 -17 -17 -17 -18 -18 -18 -18 -18 -18 -18 -18 -18 -18 -18 -18 -17 -17 -17 -16 -16 -16 -16 -16 -16 -16 -16 -16 -15 -15 -15 -15 -15 -15 -15 -15 -15 -15 -15 -15 -15 -15 -15 -15 -15 -15 -15 -15 -15 -15 -15 -15 -15 -15 -15 -15 -15 -15 -15 -15 -15
-18 -18 -18 -18 -18 -18 -18 -18 -18 -18 -18 -18 -18 -18 -18 -18 -18 -18 -18 -18 -18 -18 -18 -18 -18 -18 -18 -18 -18 -17 -17 -17 -16 -16 -16 -16 -16 -16 -16 -16 -16 -16 -16 -15 -15 -15 -15 -15 -15 -15 -15 -15 -15 -15 -15 -15 -15 -15 -15 -15 -16 -16 -16 -15 -15 -15 -15 -15 -15 -15 -15 -15 -15 -15
-19 -19 -18 -18 -18 -18 -18 -18 -18 -18 -18 -18 -18 -18 -19 -19 -19 -18 -18 -18 -18 -18 -18 -18 -18 -18 -18 -18 -18 -18 -17 -17 -17 -16 -16 -17 -16 -16 -16 -16 -16 -15 -15 -15 -15 -15 -15 -15 -15 -15 -15 -15 -15 -15 -15 -15 -16 -16 -16 -16 -16 -16 -16 -16 -15 -15 -15 -15 -16 -16 -16 -16 -16 -16
-19 -19 -19 -18 -18 -18 -18 -18 -18 -18 -18 -18 -19 -19 -18 -18 -18 -18 -18 -18 -18 -18 -18 -18 -18 -18 -18 -18 -18 -18 -17 -17 -17 -17 -17 -17 -16 -16 -16 -16 -16 -15 -15 -15 -15 -15 -15 -15 -15 -15 -15 -15 -15 -16 -16 -16 -16 -16 -16 -16 -16 -16 -16 -16 -16 -15 -16 -16 -16 -16 -16 -16 -16 -16
-19 -19 -19 -18 -18 -18 -18 -18 -18 -18 -18 -18 -18 -18 -18 -18 -18 -18 -18 -18 -18 -18 -18 -18 -18 -18 -18 -18 -18 -18 -18 -17 -17 -17 -16 -16 -16 -16 -16 -16 -16 -15 -16 -16 -16 -15 -15 -15 -15 -15 -15 -15 -16 -16 -16 -16 -16 -16 -16 -16 -16 -16 -16 -16 -16 -16 -16 -16 -16 -16 -16 -16 -16 -17
-19 -19 -19 -19 -18 -18 -18 -18 -18 -18 -18 -18 -18 -18 -18 -18 -18 -18 -18 -18 -18 -18 -18 -18 -18 -18 -18 -18 -18 -18 -17 -17 -17 -17 -16 -16 -16 -16 -16 -16 -16 -16 -16 -16 -16 -16 -16 -15 -15 -15 -16 -16 -16 -16 -16 -16 -16 -16 -16 -16 -16 -16 -16 -16 -16 -16 -16 -16 -16 -16 -16 -17 -17 -17
-19 -19 -19 -19 -19 -18 -18 -18 -18 -18 -18 -18 -18 -18 -18 -18 -18 -18 -18 -18 -18 -18 -18 -18 -18 -18 -18 -18 -18 -18 -17 -17 -17 -16 -16 -16 -16 -16 -16 -16 -16 -16 -16 -16 -16 -16 -16 -16 -15 -16 -16 -16 -16 -16 -16 -16 -16 -16 -16 -16 -16 -16 -16 -16 -16 -16 -16 -16 -16 -16 -17 -17 -17 -18
-19 -19 -19 -19 -19 -18 -18 -18 -18 -17 -17 -17 -17 -17 -17 -17 -17 -17 -17 -17 -17 -18 -18 -18 -18 -18 -18 -18 -18 -18 -17 -17 -16 -16 -16 -16 -16 -16 -16 -16 -16 -16 -15 -15 -16 -16 -16 -16 -16 -16 -16 -16 -16 -16 -16 -16 -16 -16 -16 -16 -16 -16 -16 -16 -16 -16 -16 -16 -17 -17 -17 -17 -18 -19
-19 -19 -19 -19 -19 -18 -18 -18 -18 -18 -17 -17 -17 -17 -17 -17 -17 -17 -17 -17 -17 -17 -18 -18 -18 -18 -18 -18 -18 -18 -17 -16 -16 -16 -16 -16 -16 -16 -16 -16 -16 -16 -16 -16 -16 -16 -16 -16 -16 -16 -16 -16 -16 -16 -16 -16 -16 -16 -16 -16 -16 -16 -16 -16 -16 -16 -17 -17 -17 -17 -17 -18 -19 -19
Height
5743 5744 5745 5747 5749 5751 5753 5754 5756 5758 5760 5762 5763 5766 5768 5769 5771 5774 5777 5778 5781 5783 5782 5782 5785 5786 5787 5792 5795 5797 5800 5801 5801 5803 5804 5805 5805 5806 5807 5808 5809 5809 5810 5810 5810 5811 5811 5811 5812 5812 5812 5812 5812 5812 5812 5812 5812 5811 5811 5810 5809 5807 5806 5804 5803 5801 5800 5799 5797 5795 5793 5791 5789 5787
5736 5737 5738 5740 5742 5744 5746 5748 5749 5751 5753 5755 5757 5759 5761 5763 5765 5768 5772 5774 5776 5778 5778 5777 5779 5780 5781 5786 5789 5790 5793 5796 5797 5798 5800 5800 5801 5801 5802 5804 5804 5805 5805 5806 5806 5806 5807 5807 5808 5808 5808 5807 5807 5807 5808 5808 5808 5807 5806 5805 5804 5803 5802 5800 5799 5797 5796 5794 5793 5791 5789 5787 5786 5784
5730 5730 5732 5734 5736 5737 5739 5741 5743 5744 5746 5749 5751 5753 5755 5756 5758 5761 5765 5768 5771 5772 5773 5773 5774 5774 5775 5779 5782 5784 5787 5790 5792 5794 5795 5796 5796 5796 5798 5799 5800 5800 5800 5801 5802 5802 5803 5803 5804 5804 5803 5803 5803 5803 5803 5804 5804 5803 5802 5801 5800 5799 5798 5796 5794 5793 5792 5790 5789 5787 5785 5783 5782 5780
5724 5725 5725 5727 5729 5731 5733 5734 5736 5737 5739 5742 5744 5746 5748 5749 5751 5754 5757 5762 5766 5766 5766 5768 5769 5768 5769 5771 5775 5779 5781 5784 5787 5789 5790 5790 5790 5791 5793 5794 5795 5795 5796 5797 5797 5798 5799 5799 5799 5799 5799 5799 5799 5799 5799 5799 5799 5799 5798 5796 5795 5795 5793 5792 5790 5789 5787 5786 5784 5783 5781 5779 5778 5776
5716 5718 5719 5720 5722 5724 5726 5728 5730 5731 5732 5734 5737 5739 5741 5743 5745 5747 5749 5755 5761 5760 5759 5762 5764 5763 5762 5763 5770 5774 5775 5778 5781 5782 5783 5784 5785 5787 5788 5789 5789 5791 5791 5792 5793 5794 5794 5795 5795 5795 5794 5794 5795 5795 5795 5795 5795 5794 5793 5792 5791 5790 5789 5788 5786 5785 5783 5782 5780 5778 5777 5775 5773 5771
5708 5710 5712 5714 5715 5717 5719 5721 5723 5725 5725 5727 5730 5732 5734 5736 5739 5741 5743 5747 5753 5754 5753 5755 5758 5757 5755 5758 5766 5770 5769 5771 5774 5774 5776 5778 5780 5782 5783 5784 5785 5786 5787 5788 5789 5790 5790 5790 5790 5790 5790 5790 5790 5790 5790 5791 5791 5790 5789 5788 5787 5786 5785 5783 5782 5781 5779 5777 5776 5774 5772 5771 5769 5767
5701 5702 5705 5707 5709 5709 5711 5714 5716 5718 5719 5720 5722 5726 5727 5729 5732 5735 5737 5739 5744 5747 5748 5749 5751 5750 5750 5754 5761 5764 5764 5766 5768 5768 5769 5773 5775 5777 5778 5779 5780 5781 5783 5783 5784 5785 5786 5786 5786 5786 5785 5786 5786 5786 5786 5786 5786 5786 5785 5783 5782 5781 5780 5779 5778 5776 5775 5773 5771 5770 5768 5766 5765 5763
5694 5695 5697 5699 5701 5702 5704 5706 5708 5711 5712 5713 5715 5718 5720 5723 5725 5728 5731 5732 5735 5739 5741 5743 5744 5743 5745 5749 5753 5757 5760 5762 5762 5762 5763 5766 5769 5771 5773 5774 5776 5777 5778 5777 5778 5780 5781 5781 5781 5781 5781 5781 5781 5782 5782 5781 5781 5781 5780 5779 5778 5777 5776 5775 5774 5772 5770 5769 5767 5765 5764 5762 5760 5758
5687 5688 5690 5691 5693 5695 5697 5699 5701 5703 5705 5707 5709 5711 5713 5716 5718 5720 5724 5726 5728 5731 5734 5736 5737 5737 5738 5742 5745 5750 5755 5757 5757 5758 5758 5761 5763 5766 5768 5769 5771 5772 5771 5771 5773 5774 5775 5775 5775 5776 5776 5776 5776 5777 5777 5777 5777 5776 5775 5774 5774 5773 5772 5771 5769 5767 5766 5764 5762 5761 5759 5757 5756 5754
5680 5681 5683 5684 5686 5688 5689 5691 5693 5695 5697 5699 5702 5704 5706 5709 5711 5713 5716 5719 5721 5724 5727 5729 5731 5731 5732 5734 5738 5744 5750 5752 5753 5753 5753 5756 5759 5761 5762 5764 5764 5765 5765 5766 5767 5768 5769 5769 5770 5771 5771 5770 5771 5772 5772 5772 5772 5771 5770 5770 5769 5768 5768 5766 5765 5763 5761 5760 5758 5756 5755 5753 5751 5749
5673 5674 5676 5677 5679 5681 5683 5684 5686 5688 5690 5692 5694 5697 5699 5701 5704 5706 5709 5711 5715 5718 5720 5722 5724 5726 5726 5727 5730 5736 5743 5745 5747 5748 5750 5754 5756 5756 5756 5757 5757 5758 5759 5760 5761 5762 5763 5764 5764 5765 5765 5765 5766 5767 5767 5767 5766 5766 5766 5765 5765 5764 5763 5762 5760 5758 5757 5755 5754 5752 5750 5749 5747 5744
5665 5667 5669 5670 5672 5675 5676 5678 5679 5680 5682 5684 5686 5689 5692 5694 5697 5699 5701 5704 5707 5711 5713 5715 5717 5718 5719 5719 5721 5728 5736 5740 5742 5745 5747 5749 5751 5751 5750 5750 5752 5753 5754 5755 5756 5757 5758 5758 5759 5760 5760 5760 5761 5762 5762 5762 5761 5761 5761 5761 5760 5759 5758 5757 5756 5754 5753 5751 5749 5748 5746 5744 5742 5740
5657 5659 5661 5663 5665 5667 5669 5671 5672 5673 5675 5677 5679 5682 5684 5687 5689 5692 5694 5696 5699 5703 5706 5709 5710 5710 5710 5712 5715 5721 5730 5736 5738 5739 5741 5743 5744 5745 5745 5745 5747 5749 5750 5750 5751 5752 5753 5754 5754 5755 5755 5756 5756 5757 5757 5757 5757 5757 5756 5756 5756 5755 5754 5752 5751 5750 5749 5747 5745 5743 5742 5740 5737 5735
5649 5650 5652 5655 5657 5659 5661 5663 5665 5667 5668 5670 5672 5675 5676 5678 5681 5684 5686 5688 5692 5695 5698 5701 5703 5702 5703 5705 5710 5716 5723 5728 5730 5732 5735 5737 5738 5739 5740 5740 5742 5744 5744 5744 5745 5747 5748 5749 5749 5750 5751 5751 5752 5752 5753 5753 5752 5751 5751 5752 5751 5750 5749 5748 5747 5746 5745 5743 5741 5739 5737 5735 5733 5731
5641 5642 5644 5646 5648 5651 5654 5656 5657 5659 5661 5663 5665 5667 5669 5671 5673 5676 5678 5681 5683 5687 5690 5693 5694 5695 5698 5701 5705 5709 5713 5718 5723 5726 5729 5730 5731 5733 5735 5735 5737 5738 5738 5738 5738 5741 5743 5744 5744 5745 5746 5747 5747 5747 5748 5749 5747 5746 5746 5747 5746 5745 5744 5743 5743 5742 5740 5738 5736 5735 5733 5731 5728 5726
5632 5634 5635 5637 5639 5642 5645 5647 5649 5651 5653 5655 5657 5658 5660 5663 5665 5668 5670 5673 5676 5678 5682 5685 5686 5690 5693 5695 5699 5703 5706 5711 5717 5720 5722 5724 5725 5728 5730 5730 5731 5733 5733 5733 5734 5736 5738 5739 5739 5740 5741 5742 5742 5742 5744 5744 5742 5740 5741 5742 5741 5740 5739 5738 5738 5737 5736 5734 5732 5730 5728 5726 5724 5721
5622 5624 5626 5629 5631 5633 5635 5638 5641 5643 5645 5647 5649 5650 5652 5654 5657 5660 5662 5666 5668 5670 5673 5677 5680 5683 5687 5689 5693 5698 5701 5706 5710 5713 5715 5718 5719 5722 5724 5725 5725 5726 5727 5729 5730 5732 5733 5734 5734 5735 5736 5737 5737 5737 5739 5739 5737 5735 5735 5736 5736 5735 5734 5733 5733 5732 5731 5729 5727 5726 5724 5721 5719 5717
5612 5615 5617 5620 5623 5625 5626 5629 5632 5634 5636 5638 5639 5642 5644 5646 5650 5652 5654 5658 5661 5663 5665 5669 5673 5677 5680 5684 5688 5691 5695 5699 5703 5706 5709 5712 5714 5715 5717 5718 5719 5720 5723 5724 5725 5727 5728 5728 5729 5730 5731 5731 5731 5733 5734 5734 5731 5729 5730 5731 5730 5729 5729 5728 5728 5727 5726 5724 5723 5721 5719 5717 5715 5712
5601 5604 5607 5610 5613 5615 5618 5621 5623 5624 5626 5628 5630 5633 5635 5638 5642 5645 5647 5650 5653 5656 5658 5661 5666 5669 5673 5678 5682 5685 5690 5694 5696 5700 5703 5705 5707 5707 5709 5712 5715 5716 5718 5718 5720 5722 5723 5723 5725 5726 5726 5726 5726 5728 5730 5728 5725 5724 5725 5726 5725 5724 5724 5724 5723 5722 5721 5719 5718 5716 5714 5712 5710 5708
5590 5593 5596 5599 5603 5606 5609 5612 5614 5614 5616 5618 5621 5625 5627 5630 5633 5637 5641 5643 5645 5648 5651 5654 5658 5661 5665 5672 5678 5680 5683 5687 5690 5693 5695 5697 5699 5700 5703 5707 5710 5711 5712 5713 5715 5717 5718 5719 5720 5721 5721 5721 5721 5722 5724 5723 5720 5720 5720 5720 5720 5720 5719 5719 5718 5717 5716 5715 5713 5712 5710 5707 5705 5703
5579 5582 5585 5588 5592 5595 5600 5603 5604 5605 5606 5608 5612 5616 5619 5621 5625 5629 5633 5635 5637 5641 5643 5646 5650 5655 5659 5664 5669 5672 5675 5678 5682 5685 5688 5690 5692 5694 5697 5701 5704 5705 5706 5708 5710 5712 5713 5714 5715 5716 5715 5716 5717 5717 5718 5717 5716 5715 5716 5716 5716 5715 5715 5714 5713 5712 5711 5710 5709 5707 5705 5702 5700 5697
5568 5571 5573 5576 5579 5584 5589 5592 5594 5596 5596 5598 5603 5607 5610 5613 5617 5621 5625 5628 5631 5633 5636 5638 5643 5649 5653 5657 5662 5665 5668 5671 5676 5680 5683 5685 5686 5688 5691 5695 5697 5699 5701 5702 5704 5707 5708 5708 5709 5710 5711 5712 5713 5712 5712 5712 5712 5711 5711 5711 5711 5711 5710 5710 5709 5708 5707 5705 5703 5701 5699 5697 5695 5692
5556 5558 5561 5564 5567 5572 5577 5580 5583 5586 5587 5589 5594 5597 5601 5605 5609 5613 5617 5621 5624 5626 5628 5632 5637 5642 5646 5649 5654 5659 5662 5666 5670 5674 5678 5680 5680 5682 5686 5689 5691 5693 5696 5698 5699 5701 5703 5702 5702 5705 5706 5707 5708 5707 5706 5707 5708 5708 5707 5706 5706 5706 5706 5705 5704 5703 5702 5700 5698 5696 5694 5692 5690 5687
5544 5546 5549 5552 5556 5560 5563 5567 5572 5575 5577 5580 5584 5587 5592 5597 5601 5604 5608 5613 5617 5619 5621 5625 5629 5635 5639 5642 5647 5652 5656 5661 5665 5668 5672 5676 5677 5677 5680 5682 5685 5688 5690 5692 5692 5695 5697 5697 5696 5700 5702 5701 5702 5702 5702 5702 5703 5703 5702 5701 5701 5702 5701 5700 5700 5699 5697 5695 5693 5690 5688 5686 5684 5682
5532 5534 5537 5540 5543 5547 5551 5555 5560 5564 5567 5570 5573 5577 5584 5590 5592 5595 5600 5605 5609 5612 5615 5618 5623 5628 5632 5636 5640 5645 5650 5655 5659 5662 5666 5669 5670 5671 5673 5677 5680 5682 5684 5686 5686 5689 5692 5691 5691 5694 5696 5696 5696 5697 5697 5697 5698 5698 5698 5697 5697 5697 5696 5696 5695 5694 5692 5689 5687 5685 5682 5680 5678 5676
5520 5523 5526 5528 5531 5534 5539 5543 5548 5553 5557 5559 5564 5570 5577 5581 5583 5586 5591 5597 5602 5605 5609 5612 5616 5621 5626 5629 5634 5639 5644 5649 5653 5655 5658 5661 5663 5665 5668 5671 5674 5677 5678 5679 5680 5683 5686 5686 5686 5689 5691 5691 5692 5692 5693 5693 5694 5693 5693 5693 5692 5691 5691 5691 5690 5688 5686 5684 5682 5680 5677 5675 5673 5671
5510 5512 5515 5517 5520 5524 5528 5533 5538 5543 5547 5550 5557 5563 5568 5571 5574 5578 5584 5590 5595 5598 5602 5605 5608 5613 5618 5622 5627 5633 5638 5643 5647 5649 5652 5655 5657 5660 5663 5666 5669 5671 5671 5672 5675 5679 5681 5680 5681 5684 5686 5686 5687 5687 5688 5689 5689 5688 5688 5688 5687 5686 5686 5685 5684 5682 5681 5679 5677 5675 5673 5671 5669 5667
5500 5502 5504 5507 5510 5514 5518 5522 5528 5533 5537 5543 5549 5555 5559 5563 5566 5571 5577 5584 5588 5592 5596 5599 5602 5606 5611 5616 5621 5626 5631 5636 5640 5643 5647 5650 5652 5655 5659 5661 5663 5665 5666 5668 5671 5674 5675 5675 5676 5678 5680 5680 5681 5682 5683 5684 5685 5684 5683 5683 5682 5682 5681 5680 5678 5677 5675 5673 5671 5670 5668 5666 5664 5661
5491 5493 5495 5498 5501 5505 5509 5513 5519 5524 5529 5535 5541 5545 5550 5555 5559 5565 5572 5578 5582 5586 5590 5593 5596 5600 5605 5609 5614 5619 5624 5629 5633 5637 5642 5645 5647 5650 5653 5655 5657 5659 5661 5663 5666 5668 5669 5670 5672 5673 5674 5675 5676 5677 5678 5679 5679 5678 5678 5678 5678 5677 5677 5675 5674 5672 5670 5668 5666 5665 5663 5661 5658 5655
5485 5486 5489 5491 5494 5498 5502 5507 5512 5517 5522 5528 5533 5538 5544 5549 5554 5561 5567 5572 5577 5581 5585 5589 5592 5595 5598 5603 5608 5613 5618 5623 5628 5633 5637 5640 5642 5645 5647 5650 5652 5654 5656 5658 5660 5661 5663 5665 5667 5668 5669 5669 5671 5672 5673 5674 5674 5673 5672 5672 5673 5673 5672 5671 5669 5667 5665 5663 5662 5660 5658 5655 5653 5649
5480 5481 5483 5486 5489 5493 5497 5502 5506 5511 5517 5522 5528 5534 5539 5544 5551 5557 5563 5567 5572 5576 5580 5584 5587 5589 5593 5597 5602 5607 5612 5617 5623 5628 5632 5635 5637 5640 5643 5645 5647 5649 5651 5652 5654 5656 5658 5661 5662 5663 5663 5665 5665 5666 5668 5669 5669 5668 5667 5667 5667 5668 5667 5665 5663 5662 5660 5659 5657 5655 5652 5649 5647 5644
5477 5478 5480 5483 5486 5490 5494 5498 5503 5508 5513 5519 5525 5530 5535 5541 5547 5553 5558 5562 5566 5571 5575 5579 5582 5585 5589 5593 5598 5603 5608 5613 5618 5622 5626 5629 5632 5636 5639 5641 5643 5645 5647 5648 5649 5651 5653 5655 5656 5657 5658 5660 5659 5660 5662 5663 5663 5663 5663 5662 5661 5662 5662 5659 5658 5656 5655 5654 5652 5650 5647 5644 5641 5638
5474 5476 5478 5481 5484 5488 5491 5495 5500 5505 5510 5515 5521 5526 5532 5538 5543 5548 5553 5558 5562 5567 5571 5575 5578 5582 5586 5590 5594 5598 5603 5608 5612 5616 5620 5624 5627 5631 5634 5635 5638 5641 5643 5643 5644 5646 5648 5649 5651 5652 5653 5654 5654 5654 5655 5657 5657 5658 5658 5657 5656 5656 5655 5654 5652 5651 5650 5648 5646 5644 5641 5639 5636 5633
5473 5475 5477 5480 5482 5485 5489 5493 5497 5501 5506 5512 5517 5523 5529 5534 5538 5543 5548 5552 5557 5562 5567 5571 5575 5578 5582 5586 5590 5594 5598 5602 5606 5610 5615 5619 5623 5626 5629 5630 5633 5636 5638 5638 5639 5641 5642 5644 5646 5647 5648 5648 5649 5649 5650 5651 5652 5652 5653 5652 5651 5651 5650 5649 5648 5647 5645 5643 5641 5638 5636 5634 5631 5628
5471 5473 5476 5478 5481 5484 5487 5490 5494 5499 5503 5508 5513 5518 5523 5528 5533 5538 5543 5548 5554 5559 5563 5567 5571 5575 5578 5582 5585 5589 5593 5597 5601 5605 5610 5614 5618 5622 5624 5626 5628 5631 5632 5633 5634 5636 5638 5640 5641 5642 5643 5644 5645 5645 5646 5646 5647 5647 5647 5647 5646 5646 5645 5644 5643 5642 5640 5638 5635 5633 5631 5629 5627 5624
5470 5472 5475 5477 5480 5482 5485 5488 5492 5496 5500 5505 5510 5514 5519 5524 5529 5534 5540 5546 5551 5555 5559 5564 5568 5571 5574 5578 5581 5584 5588 5592 5596 5601 5605 5609 5613 5617 5620 5621 5623 5626 5628 5629 5629 5631 5633 5635 5636 5637 5639 5640 5640 5641 5641 5641 5642 5642 5642 5642 5641 5641 5641 5640 5639 5637 5635 5633 5631 5628 5626 5624 5621 5619
5468 5471 5473 5476 5478 5481 5484 5487 5490 5493 5497 5501 5506 5511 5516 5521 5526 5532 5537 5543 5547 5552 5556 5561 5564 5568 5571 5574 5577 5580 5584 5587 5591 5596 5600 5604 5608 5611 5614 5616 5618 5621 5624 5625 5627 5628 5630 5631 5632 5634 5635 5636 5636 5635 5636 5637 5637 5637 5637 5637 5637 5637 5636 5635 5634 5632 5630 5628 5626 5624 5622 5619 5616 5613
5467 5469 5472 5474 5477 5480 5482 5485 5488 5491 5495 5498 5503 5508 5513 5518 5524 5529 5535 5540 5544 5549 5553 5557 5561 5564 5568 5570 5573 5576 5579 5582 5586 5591 5595 5599 5603 5606 5609 5612 5614 5617 5620 5622 5624 5625 5626 5627 5628 5630 5631 5631 5630 5630 5631 5632 5633 5633 5633 5632 5632 5632 5632 5631 5629 5628 5626 5624 5622 5619 5617 5614 5611 5607
5466 5467 5470 5472 5475 5478 5481 5484 5487 5490 5494 5497 5501 5506 5512 5517 5522 5528 5533 5538 5542 5546 5550 5554 5557 5561 5564 5566 5569 5571 5574 5577 5582 5587 5591 5595 5599 5602 5605 5608 5610 5613 5616 5618 5620 5621 5623 5624 5624 5626 5627 5627 5626 5626 5628 5628 5628 5628 5629 5628 5628 5628 5627 5626 5625 5623 5621 5620 5617 5615 5612 5610 5606 5602
5464 5466 5468 5470 5473 5477 5480 5483 5486 5490 5493 5497 5501 5506 5511 5516 5521 5526 5530 5535 5539 5543 5546 5550 5553 5557 5559 5562 5564 5566 5569 5573 5578 5583 5587 5592 5595 5598 5601 5603 5607 5610 5612 5614 5616 5617 5619 5620 5621 5622 5623 5623 5622 5622 5623 5624 5623 5624 5624 5624 5624 5623 5622 5621 5620 5619 5617 5615 5613 5610 5607 5604 5601 5597
5463 5465 5467 5469 5472 5475 5478 5482 5485 5489 5493 5497 5501 5505 5509 5514 5518 5523 5527 5531 5535 5539 5542 5546 5549 5552 5555 5557 5560 5562 5565 5569 5574 5579 5583 5587 5591 5594 5596 5599 5603 5606 5608 5610 5612 5614 5616 5616 5617 5618 5619 5619 5618 5618 5619 5619 5620 5620 5620 5619 5619 5619 5618 5617 5616 5614 5612 5610 5608 5605 5602 5599 5595 5592
5461 5463 5465 5468 5470 5473 5477 5480 5484 5488 5492 5495 5499 5503 5507 5511 5515 5520 5523 5527 5531 5535 5539 5542 5545 5548 5550 5553 5555 5558 5561 5566 5570 5575 5580 5584 5587 5590 5593 5596 5599 5601 5604 5606 5609 5611 5612 5612 5613 5614 5615 5615 5615 5615 5615 5615 5615 5616 5615 5615 5614 5614 5613 5612 5611 5610 5608 5606 5603 5600 5597 5593 5590 5586
5459 5461 5464 5466 5469 5472 5475 5478 5482 5486 5490 5493 5497 5501 5505 5509 5512 5516 5520 5524 5528 5531 5535 5538 5541 5544 5547 5549 5552 5555 5558 5563 5568 5572 5577 5580 5583 5586 5589 5592 5594 5597 5600 5603 5605 5607 5608 5608 5609 5610 5610 5611 5611 5611 5611 5611 5611 5611 5611 5611 5610 5609 5609 5608 5607 5605 5603 5601 5599 5595 5592 5588 5584 5581
5457 5459 5461 5464 5467 5470 5473 5476 5480 5483 5487 5490 5494 5498 5502 5505 5509 5513 5517 5520 5524 5527 5531 5534 5537 5540 5543 5546 5549 5552 5556 5561 5566 5570 5574 5577 5580 5583 5585 5588 5591 5594 5597 5599 5601 5602 5603 5604 5605 5605 5606 5606 5607 5607 5607 5607 5607 5607 5607 5606 5606 5605 5605 5604 5602 5600 5598 5596 5594 5590 5587 5583 5580 5576
5456 5458 5460 5462 5465 5468 5471 5474 5477 5480 5483 5486 5490 5494 5498 5502 5506 5509 5513 5516 5520 5524 5527 5531 5534 5537 5541 5544 5547 5551 5555 5559 5563 5567 5570 5573 5576 5578 5581 5584 5588 5591 5593 5595 5597 5598 5599 5600 5601 5601 5602 5602 5603 5603 5603 5603 5603 5603 5602 5602 5602 5601 5600 5599 5597 5595 5593 5591 5588 5585 5582 5578 5575 5571
Wind_Speed
57 58 59 59 58 59 59 60 60 59 58 58 58 56 55 56 57 57 55 53 50 48 51 53 50 51 55 55 54 52 49 49 48 46 43 42 42 43 43 44 45 45 44 43 42 42 40 38 37 35 35 34 34 34 34 34 34 34 33 34 34 35 36 37 39 40 40 41 41 42 42 39 37 36
57 58 59 59 59 59 59 60 60 61 60 59 59 59 58 58 59 57 54 53 53 51 53 55 54 53 54 53 54 54 52 51 51 49 45 43 43 43 42 43 43 44 43 43 43 42 41 39 37 35 34 34 34 34 34 33 34 34 34 35 36 37 37 39 41 41 41 42 42 43 42 39 38 37
57 58 58 59 59 60 60 60 61 61 62 61 61 61 61 61 61 60 57 54 52 52 53 55 58 60 59 55 54 55 54 53 52 51 48 45 44 44 43 42 42 42 43 43 43 42 40 38 36 34 34 34 33 34 34 33 34 34 35 37 38 38 39 40 42 42 42 43 43 43 41 39 38 38
57 58 59 58 59 60 60 61 61 62 62 62 62 63 63 63 63 63 60 54 50 50 52 53 56 60 62 59 57 56 56 55 53 52 50 49 47 45 44 43 42 42 42 42 42 41 39 36 35 33 33 33 33 33 34 34 34 35 36 38 39 40 41 41 42 43 43 43 43 43 41 39 38 38
57 57 58 59 59 59 60 61 61 62 63 63 62 63 63 63 63 64 62 55 51 52 52 50 50 52 56 59 56 53 54 55 55 55 53 52 50 48 45 45 44 42 42 42 41 39 37 35 34 34 34 34 33 34 35 35 35 36 38 40 41 41 42 42 42 44 45 44 43 43 41 39 39 38
57 58 58 59 60 60 60 60 61 62 63 63 62 62 62 62 62 64 64 58 54 54 55 54 51 50 52 53 48 44 46 49 51 56 57 54 52 50 48 47 45 44 43 42 40 38 37 36 36 36 35 34 34 35 37 37 37 38 39 41 41 42 42 42 43 45 46 44 44 43 41 40 39 38
54 57 58 59 59 61 61 60 60 61 62 63 63 61 61 62 62 62 63 62 59 57 58 58 57 57 55 50 42 38 39 40 42 48 54 56 54 52 49 48 47 45 44 42 40 38 38 38 38 37 37 36 36 37 38 38 38 38 40 41 41 42 42 42 44 46 46 44 44 43 41 40 39 39
52 54 57 58 58 60 61 61 60 60 61 62 62 62 61 61 61 61 61 63 63 60 58 59 60 62 60 53 47 43 40 38 39 42 45 50 55 55 51 49 47 45 44 44 42 40 39 40 40 39 39 38 38 39 38 39 39 39 40 41 42 43 43 43 45 46 45 44 43 42 41 40 39 39
52 53 54 56 57 58 60 61 61 60 59 61 61 62 61 61 61 61 60 61 64 62 60 60 61 63 63 59 54 49 45 42 42 41 40 42 49 53 52 49 47 47 47 47 45 43 43 43 44 43 42 42 41 40 39 39 39 40 40 41 42 43 43 43 45 45 44 43 42 42 41 39 39 39
52 53 53 54 55 56 57 58 60 59 59 59 60 61 62 62 62 61 60 60 61 60 60 62 63 64 65 64 60 54 50 47 45 45 43 39 41 48 51 51 51 51 50 50 49 48 47 47 47 46 45 45 43 41 39 39 40 40 41 42 43 43 43 44 45 43 41 41 42 41 39 38 39 40
52 52 53 53 53 54 55 56 57 58 58 58 59 59 60 62 62 62 60 60 59 57 57 59 63 65 65 66 65 60 56 53 51 50 47 42 39 42 48 52 54 54 53 53 52 51 51 51 50 49 49 47 44 41 39 39 40 41 41 42 43 43 44 45 42 40 39 40 40 40 38 38 39 40
54 53 53 53 53 53 53 54 55 57 57 57 58 58 59 60 61 62 61 59 59 58 56 57 59 62 65 67 68 64 58 54 53 52 49 45 43 42 44 47 51 53 54 55 55 54 54 54 53 52 50 46 43 41 39 39 40 41 42 42 42 43 44 43 39 36 37 39 39 38 38 38 40 40
56 55 54 54 53 53 53 53 54 55 56 57 57 58 58 59 60 61 60 60 59 57 56 56 56 56 61 66 68 65 58 51 51 53 50 47 47 46 45 45 46 47 49 53 57 57 55 54 53 52 50 46 44 41 39 39 40 41 42 42 42 44 43 39 35 35 36 38 39 38 38 38 40 40
57 57 57 55 55 54 54 54 54 55 56 56 56 57 58 58 59 59 60 60 59 58 57 58 58 57 58 60 62 62 57 51 51 53 51 49 49 49 47 47 47 46 45 47 53 56 54 52 52 51 50 47 44 42 39 39 40 42 43 42 43 43 40 36 34 34 35 38 39 38 37 38 39 39
58 58 58 58 57 55 55 54 54 55 55 55 56 57 58 58 59 59 60 60 60 59 58 60 63 63 60 58 57 58 58 54 51 51 49 49 51 48 47 49 49 47 45 44 46 51 50 49 50 51 50 47 44 42 39 38 41 44 43 42 42 41 38 35 33 33 35 37 37 36 36 37 38 39
59 59 59 60 59 58 56 55 55 55 56 56 56 57 58 58 59 60 60 61 60 59 59 60 63 64 62 61 58 57 57 53 49 50 50 50 51 48 46 48 49 48 46 43 42 45 46 47 49 50 48 45 43 41 39 39 42 44 43 41 41 40 38 36 33 32 35 37 37 37 37 38 39 40
60 60 60 60 60 60 59 58 57 56 56 57 57 58 58 58 59 60 61 61 61 60 60 60 61 61 60 59 58 56 55 52 49 50 50 50 50 48 46 47 49 49 47 44 43 43 44 46 48 47 44 43 43 42 39 39 42 44 42 40 40 40 39 36 33 33 36 38 39 38 38 39 40 41
60 60 61 61 60 61 61 60 59 58 57 58 59 59 59 58 58 59 61 61 62 61 61 61 61 61 59 57 56 55 52 51 50 50 50 49 49 48 47 48 49 48 46 45 44 43 44 46 45 43 42 43 43 41 39 39 42 42 40 39 39 38 37 35 33 35 37 39 41 40 39 40 42 42
60 60 61 61 61 61 61 61 61 61 60 60 60 60 60 60 59 59 60 61 62 61 61 62 62 62 60 57 56 55 51 49 49 50 51 51 51 51 51 49 46 45 45 45 43 42 43 44 42 40 40 42 43 40 37 37 40 41 39 37 38 37 36 35 36 37 38 40 43 42 41 42 43 43
61 61 61 61 61 61 61 61 61 63 63 62 61 60 60 61 59 58 59 60 61 61 61 62 62 62 62 57 55 55 54 52 49 48 51 55 55 55 53 50 46 45 45 45 43 41 42 42 40 39 40 41 41 38 34 36 39 40 38 38 38 38 38 38 39 39 40 42 44 43 42 43 44 45
62 62 62 63 62 61 61 60 61 62 64 65 62 60 61 62 60 59 58 60 61 61 61 62 62 63 62 59 56 56 57 54 49 47 50 54 56 56 55 52 49 47 46 46 45 42 42 43 42 41 41 42 39 35 33 36 39 39 39 38 39 40 40 41 41 41 42 44 44 44 44 45 45 46
64 64 64 64 64 63 61 61 61 61 63 65 64 61 61 62 61 59 58 59 60 60 60 61 62 62 62 61 58 56 55 52 48 47 49 52 56 57 56 53 52 50 49 48 47 44 44 46 45 44 44 43 39 35 35 37 37 38 39 39 41 42 42 42 42 42 43 45 45 45 45 46 46 47
65 65 65 65 65 64 63 63 62 62 63 64 65 63 61 61 61 60 58 58 59 59 59 60 61 61 61 61 60 58 55 51 47 48 49 50 54 57 56 55 54 52 51 49 48 47 46 47 50 49 46 44 40 38 38 38 37 37 39 41 42 42 42 42 43 44 45 45 45 45 45 46 46 47
63 64 65 65 65 65 64 64 63 63 63 64 65 64 61 60 61 60 58 57 57 58 58 58 60 61 61 61 60 59 58 54 48 48 49 50 52 53 54 54 54 53 51 49 49 49 47 49 52 50 46 44 41 39 39 39 37 36 38 40 41 41 42 44 44 45 46 45 46 46 46 46 47 48
60 60 61 62 64 64 65 64 63 63 62 63 64 64 61 59 60 60 58 56 56 56 56 56 59 61 62 62 60 59 59 55 49 46 48 50 53 54 53 50 49 51 50 49 49 50 49 51 54 50 45 44 42 41 42 41 37 35 37 39 39 41 44 45 46 47 46 46 47 46 46 47 48 50
56 57 57 58 61 62 62 62 62 61 61 62 63 61 59 59 59 59 58 56 55 54 53 54 57 60 61 62 60 58 58 58 53 48 47 49 53 55 53 49 48 49 49 48 50 50 49 52 54 50 46 44 43 44 44 42 38 36 36 38 40 42 45 46 47 47 47 46 46 44 45 46 48 50
51 52 53 55 57 57 58 59 59 59 60 61 60 59 58 59 59 59 57 55 53 53 51 51 56 60 61 62 60 58 57 58 57 53 50 50 52 54 54 51 50 50 51 52 51 49 49 52 53 49 45 43 43 45 45 43 40 38 36 37 41 43 45 46 47 47 47 46 44 43 44 47 48 49
45 46 48 50 51 52 55 57 57 58 59 58 58 58 59 59 59 58 56 53 52 51 49 49 53 58 60 60 59 58 56 56 57 55 51 49 50 52 53 52 52 53 54 52 50 49 51 51 48 44 43 42 44 46 46 43 40 38 36 38 40 42 44 46 47 47 46 45 44 44 46 47 48 48
39 40 43 45 46 48 51 53 55 56 57 57 58 59 59 58 58 57 54 52 51 49 46 47 50 54 57 59 58 57 56 55 56 55 52 50 50 50 50 50 51 51 50 50 50 51 52 48 42 40 42 43 45 48 48 46 43 40 39 40 41 43 45 46 46 44 43 42 43 45 46 47 47 47
33 35 37 39 41 43 46 49 52 54 55 57 58 58 57 57 56 54 52 50 49 46 44 44 47 51 55 57 57 57 56 54 53 53 53 53 53 51 47 46 46 45 46 48 50 49 45 41 38 39 43 46 47 47 47 47 46 44 42 41 42 44 46 46 44 41 40 42 43 45 45 45 46 46
29 30 31 33 36 38 41 44 47 50 52 55 56 55 55 55 53 52 50 49 47 45 43 43 45 49 52 54 55 55 54 52 51 50 50 50 50 49 47 45 44 44 44 45 45 42 38 36 38 42 45 46 44 43 44 46 46 45 42 41 42 45 45 44 41 39 40 42 43 44 44 44 45 46
26 27 29 31 33 35 38 40 43 46 49 51 52 52 53 52 51 50 49 47 46 44 42 42 44 47 50 52 52 53 51 49 48 48 46 46 47 45 44 43 44 45 44 43 41 39 37 36 40 44 44 42 42 43 45 46 46 44 41 40 43 45 44 41 39 39 41 42 43 42 42 43 45 47
24 24 26 28 30 32 36 38 41 44 46 47 49 49 50 49 49 49 47 47 46 44 42 42 43 44 45 47 48 49 49 48 47 47 45 46 46 43 41 42 44 47 47 45 42 41 40 39 41 41 40 40 43 45 46 45 43 41 40 41 44 43 40 39 39 40 41 41 41 41 42 44 46 48
23 23 24 25 27 29 32 36 39 42 44 46 47 48 49 49 49 49 48 47 46 44 43 42 41 40 40 41 42 44 46 47 47 47 45 45 45 43 41 42 45 47 48 48 45 44 42 40 40 40 40 41 44 45 45 43 41 40 41 43 42 40 38 38 39 40 40 40 40 41 42 45 47 49
25 24 23 24 26 27 29 32 35 38 42 45 47 49 50 51 50 50 49 48 46 44 43 42 40 38 37 38 39 41 44 46 47 46 44 43 43 42 43 45 45 46 47 47 45 43 41 41 41 41 41 42 43 43 42 41 40 41 42 40 38 37 37 38 38 38 38 38 39 41 43 46 49 51
25 27 26 25 26 27 28 29 31 34 38 42 46 48 50 50 50 49 48 46 45 43 42 40 38 36 35 35 37 40 43 45 46 44 43 42 42 43 46 47 46 44 43 43 42 42 42 44 44 41 40 40 39 38 37 38 39 39 38 36 35 36 37 38 37 37 37 38 40 43 45 47 50 51
20 27 29 29 27 27 28 28 29 31 34 38 41 44 47 48 48 47 46 45 44 42 40 38 37 35 33 34 35 38 42 45 46 44 42 42 44 46 47 46 45 43 40 38 39 43 45 46 45 43 40 37 35 35 35 36 36 35 34 34 35 36 36 36 36 36 37 39 41 44 46 48 50 51
16 21 28 32 31 29 28 28 28 29 31 34 37 40 43 45 45 44 43 43 42 41 39 37 35 34 32 32 33 36 41 45 47 46 45 45 46 47 46 45 45 45 42 39 40 45 48 47 45 42 39 37 36 36 36 34 33 32 32 33 35 35 34 34 34 35 37 40 42 44 47 49 50 51
16 17 22 30 33 32 30 29 29 29 31 33 35 37 40 41 42 41 41 41 41 40 38 36 34 33 32 31 32 35 40 45 48 48 47 46 46 45 44 43 44 45 45 42 42 45 46 45 42 40 39 38 37 35 33 31 30 30 31 33 34 33 33 33 35 37 38 40 43 45 47 48 50 51
19 17 20 26 32 34 32 30 30 31 32 33 35 37 38 39 39 39 40 40 40 39 37 35 34 33 33 33 33 35 40 44 46 47 46 45 43 43 42 40 40 42 42 39 40 42 43 41 40 40 38 36 34 31 29 29 30 30 31 32 32 32 32 34 36 37 39 42 44 46 47 48 49 50
22 22 22 24 28 33 34 33 32 33 34 35 36 37 38 38 39 40 40 40 39 38 37 36 35 34 34 34 34 36 39 41 43 44 43 42 40 40 40 38 37 38 37 36 37 40 41 40 39 38 35 33 31 29 28 28 29 30 31 31 31 31 33 35 36 38 41 43 45 47 47 48 49 50
25 25 25 24 26 30 33 35 35 36 36 37 37 37 38 40 40 40 40 39 38 38 37 37 36 36 35 35 35 36 38 40 41 40 39 38 37 37 37 37 38 38 38 37 38 41 42 40 37 35 33 31 29 28 28 28 29 30 30 29 30 31 33 35 37 40 42 44 45 46 47 48 49 49
25 26 26 25 26 27 30 34 37 38 39 39 39 39 39 40 40 39 39 39 39 39 38 37 37 36 35 35 35 36 37 38 37 35 34 34 34 33 33 34 35 36 37 38 40 42 43 40 36 33 32 29 27 27 28 28 28 28 27 28 29 31 34 36 38 41 43 44 44 45 46 47 48 48
22 24 25 25 26 27 28 30 33 37 40 42 42 42 41 41 41 40 39 39 39 39 38 37 37 35 34 34 33 34 35 34 32 31 31 31 31 31 33 34 34 34 36 39 41 41 40 37 34 32 30 28 27 28 27 27 26 25 26 27 29 32 34 37 39 41 42 43 43 44 45 46 46 46
17 20 21 21 21 22 23 24 26 29 33 36 39 40 40 40 41 40 39 38 37 36 34 34 35 34 33 32 31 32 32 31 31 32 33 33 33 35 37 37 35 35 37 39 40 39 36 34 31 29 28 28 27 26 25 24 24 24 26 28 30 33 36 38 40 41 42 42 43 44 45 45 45 46
Wind_Direction
250 249 249 249 248 248 248 248 249 249 249 250 252 252 251 250 252 252 252 254 253 251 254 258 258 255 250 248 250 252 251 254 257 258 257 258 258 259 260 261 262 264 266 267 269 270 272 274 276 278 281 284 286 287 288 290 292 293 295 297 300 302 304 305 308 310 311 311 312 313 313 311 309 309
251 250 249 249 249 250 249 249 249 248 248 248 249 251 252 252 254 254 254 255 254 249 250 254 258 258 255 250 249 250 250 251 254 256 257 257 258 259 260 261 263 264 265 266 267 269 271 273 275 278 280 282 284 285 287 290 292 293 296 298 299 302 303 305 307 309 309 310 311 312 311 310 309 309
251 251 250 249 249 250 250 250 250 250 249 248 248 249 250 252 253 254 256 257 252 247 249 252 256 259 259 255 250 249 250 250 252 254 255 255 257 258 260 262 264 264 264 265 266 268 271 273 275 277 279 280 282 284 287 289 291 294 296 298 299 301 302 304 305 307 308 309 310 311 310 308 308 308
251 251 251 250 248 248 249 250 251 251 251 249 248 249 249 251 253 253 256 256 248 245 247 249 252 256 257 257 254 252 251 250 250 251 252 253 254 256 259 261 263 264 264 265 266 268 270 272 274 275 276 278 281 283 286 289 292 294 296 297 298 300 301 303 303 305 307 308 309 309 308 307 308 307
252 251 251 252 251 249 248 249 250 251 251 251 250 250 249 250 252 253 255 253 245 243 244 243 247 252 254 255 254 253 253 251 248 248 249 251 252 254 257 259 261 262 263 264 265 267 269 270 271 272 274 276 279 282 285 288 292 294 295 296 297 299 300 301 302 304 305 306 307 307 306 306 307 307
253 252 251 251 252 251 249 248 248 249 251 251 250 250 251 250 251 252 255 254 248 245 245 244 246 251 254 253 251 250 251 251 249 247 247 249 251 252 254 256 259 260 261 264 265 266 267 269 270 271 272 275 278 281 284 288 291 292 293 294 295 297 298 299 301 303 303 304 305 305 304 305 306 305
252 252 251 250 250 251 251 249 248 247 248 250 250 250 251 251 250 250 252 254 252 250 250 249 249 252 254 253 250 247 249 253 254 253 251 249 248 250 252 254 256 258 260 262 263 264 266 268 269 270 272 274 276 280 284 287 289 290 291 292 293 295 296 298 300 302 302 303 303 303 303 304 304 304
253 252 251 251 250 250 251 251 249 247 247 248 250 250 250 251 251 250 250 251 252 251 251 253 253 253 252 251 249 246 249 256 259 260 258 252 248 248 250 252 254 257 259 259 260 261 263 265 266 268 271 273 275 278 282 284 286 288 289 290 291 293 295 297 300 300 300 301 301 302 303 303 303 304
254 253 252 251 250 249 249 250 250 249 247 246 247 249 250 250 251 251 250 250 251 250 249 250 253 253 252 251 249 246 249 256 257 258 261 259 254 251 249 251 252 253 255 257 258 259 261 262 264 266 269 271 273 275 278 281 284 286 287 288 290 292 294 297 298 298 298 299 300 302 302 302 302 305
254 254 253 251 250 250 249 249 249 248 248 246 245 246 248 249 249 251 251 250 250 250 250 249 250 253 254 253 250 248 249 253 254 253 255 259 262 257 253 251 251 251 253 254 256 258 259 261 263 265 266 267 269 272 275 279 283 283 285 287 289 291 294 296 296 296 296 299 301 302 301 301 303 305
253 253 254 253 251 250 249 249 248 248 247 247 246 244 245 247 248 249 250 251 250 248 249 250 249 250 253 254 253 251 250 251 252 252 252 256 262 262 257 254 252 251 252 253 254 256 258 260 261 262 262 264 266 270 274 278 280 282 284 287 289 291 293 295 294 294 297 301 303 302 300 301 304 306
253 253 253 253 252 250 249 248 248 248 247 247 247 245 244 245 246 248 249 249 249 247 246 248 249 249 251 253 253 253 252 251 252 253 253 254 256 259 259 257 255 254 255 255 255 256 257 259 260 261 261 263 265 269 273 277 279 282 284 286 288 290 292 293 292 294 299 302 303 301 300 302 305 306
254 253 252 252 252 251 249 248 247 248 248 247 247 247 246 244 244 246 247 248 248 247 245 245 247 250 250 251 252 253 252 251 251 252 252 252 253 256 258 259 258 259 262 263 259 257 258 261 263 264 262 263 266 270 273 276 279 282 283 285 287 289 290 290 290 295 300 303 302 301 300 302 304 306
253 253 252 252 251 251 250 249 247 246 247 247 247 247 247 246 245 244 246 247 246 246 244 241 242 246 249 250 251 252 252 249 248 250 251 251 253 256 258 259 258 260 270 272 261 256 259 263 265 265 263 264 268 271 274 277 279 281 282 284 286 288 288 288 289 295 302 304 303 301 300 302 304 305
252 252 252 252 252 251 250 249 248 246 246 246 246 246 246 247 246 245 244 245 245 245 244 242 240 242 246 249 250 250 251 249 247 248 250 251 254 256 259 260 259 260 271 275 262 255 259 263 265 264 263 265 269 272 274 276 277 279 281 284 285 285 286 286 287 295 303 306 305 301 301 303 304 305
251 251 251 251 252 251 250 249 248 247 246 245 244 245 245 245 246 246 245 244 245 245 244 243 243 242 244 246 248 248 250 250 249 247 249 251 253 254 256 259 260 260 266 270 264 258 260 263 265 264 263 266 269 271 273 274 276 278 280 282 283 283 283 282 283 292 303 307 306 302 302 303 303 304
253 251 250 250 251 251 251 250 249 247 247 245 244 244 244 244 244 245 245 244 244 245 244 243 244 244 243 243 244 246 249 251 249 246 246 248 250 252 254 257 259 259 261 264 264 262 263 265 264 262 263 266 269 270 272 274 275 277 279 281 281 281 280 277 279 290 302 308 308 303 301 302 302 303
255 253 251 249 249 250 250 250 249 248 247 245 244 243 243 244 243 243 244 244 243 244 244 243 242 243 243 241 241 244 247 250 249 245 244 246 248 250 252 254 257 258 260 263 264 267 269 267 262 260 264 267 269 271 273 275 275 276 278 280 279 278 276 273 278 289 299 307 308 303 299 300 300 301
257 255 252 250 248 248 248 248 249 249 247 246 244 243 243 243 243 242 243 243 243 243 244 243 241 241 241 239 239 243 246 248 248 245 243 244 247 248 250 253 257 259 260 262 264 269 272 266 260 262 267 269 271 273 273 272 273 275 278 279 278 277 274 273 280 289 295 302 306 303 297 297 299 300
258 256 254 252 249 247 246 246 247 248 248 247 245 243 242 242 242 241 242 243 243 242 242 242 241 239 240 238 237 240 245 246 246 245 243 244 246 248 249 250 254 258 260 261 264 270 272 266 261 265 270 271 272 271 269 268 270 273 276 278 278 277 276 276 281 286 289 296 303 301 296 296 297 298
259 257 256 253 251 248 246 245 246 246 247 247 246 244 242 242 242 241 240 241 242 241 240 241 240 238 238 236 233 235 240 242 242 243 244 246 247 248 248 248 251 255 259 262 265 269 270 266 263 267 273 273 271 268 266 266 269 271 274 277 278 277 277 277 279 283 286 292 299 300 297 296 297 298
258 257 256 254 252 249 246 245 245 245 246 246 246 244 242 240 241 240 239 239 241 241 240 239 239 238 237 235 232 232 235 237 237 239 242 246 247 247 246 246 247 252 257 262 266 267 268 268 266 267 272 274 270 266 264 265 268 271 274 276 277 276 276 276 278 281 285 291 297 300 298 297 297 298
258 257 255 253 251 249 247 245 244 244 245 245 245 244 241 239 240 240 239 238 238 239 239 238 237 237 236 234 232 230 231 233 236 238 240 244 248 249 248 247 248 250 255 261 265 266 267 268 267 267 271 272 268 265 266 266 268 270 273 275 276 277 278 277 278 281 284 291 297 298 297 297 297 298
258 256 255 253 251 248 246 244 242 242 243 243 243 242 240 237 238 239 238 237 236 237 238 237 235 234 234 233 232 230 230 231 235 238 239 242 246 248 248 248 248 250 254 258 263 264 265 268 270 269 271 271 268 266 268 269 268 270 271 274 277 279 279 278 279 281 285 292 297 298 297 298 298 298
259 256 254 252 250 248 246 244 241 240 241 240 240 240 237 234 235 237 237 235 235 235 237 236 234 233 232 232 231 230 228 227 230 237 238 236 239 243 246 247 248 251 254 258 261 261 263 268 270 267 266 267 266 266 267 268 269 271 273 275 278 279 278 278 280 283 288 295 298 298 299 299 299 300
258 256 253 252 250 247 245 243 241 239 239 238 237 236 234 232 233 234 234 233 233 234 235 236 234 231 231 231 230 230 228 226 228 235 238 236 237 241 244 245 247 249 251 253 256 258 262 268 269 266 263 262 262 263 264 264 266 271 274 276 278 279 280 282 283 286 291 296 297 297 297 298 298 299
256 253 252 251 249 247 244 242 239 238 237 236 234 233 230 229 230 232 232 231 231 232 234 235 232 230 229 230 230 229 228 227 228 232 237 240 242 243 243 244 245 248 251 255 258 260 264 268 267 263 259 257 258 262 263 261 263 270 274 275 277 280 283 284 286 290 295 296 296 295 296 296 298 300
255 250 248 247 246 244 242 239 236 235 234 232 231 229 227 227 228 230 230 229 230 232 234 234 231 228 228 229 229 229 228 227 228 231 234 238 243 244 245 246 247 250 254 257 259 261 263 263 261 257 255 255 258 261 261 260 264 269 271 272 276 280 283 285 288 293 296 296 295 295 296 297 299 301
254 248 244 243 241 240 239 237 235 233 231 228 228 227 225 225 226 228 228 228 229 232 234 232 230 228 227 228 228 228 228 227 228 231 232 234 238 240 243 246 249 251 254 256 259 261 258 254 251 253 256 258 259 261 261 261 264 268 269 271 276 280 283 287 291 294 295 294 294 295 296 298 300 302
250 246 243 241 239 238 236 234 233 231 228 226 225 224 223 223 225 226 226 227 229 232 233 230 228 227 227 227 226 227 227 226 227 229 231 234 238 241 245 248 249 249 251 255 258 256 248 243 247 252 256 259 260 261 260 260 265 269 272 274 276 279 283 288 292 293 292 292 293 295 296 299 301 304
247 245 242 239 237 235 233 230 229 227 225 223 223 222 221 222 224 224 225 226 229 231 230 228 227 226 226 226 226 226 225 225 226 227 231 236 240 244 247 248 247 248 252 257 257 249 240 242 249 252 253 256 258 258 260 262 267 271 274 275 276 280 286 290 291 290 290 291 293 295 298 300 303 306
244 241 237 235 233 231 229 227 225 223 222 221 220 220 220 221 222 223 224 226 229 229 227 226 227 227 226 226 226 225 224 224 224 226 230 235 238 242 244 246 246 248 253 259 257 245 238 243 248 248 250 255 258 261 265 267 268 270 272 275 279 284 288 289 288 288 290 292 294 297 300 303 305 306
238 238 235 232 229 228 227 225 222 220 219 219 219 219 220 220 221 222 223 225 227 227 225 224 225 227 226 226 226 224 223 222 222 224 228 232 236 239 241 244 246 246 250 258 257 244 237 242 246 248 253 258 261 265 267 267 267 267 270 276 283 286 287 286 286 289 291 294 296 300 303 305 306 306
229 231 230 227 225 224 224 224 222 220 218 217 217 218 219 220 220 221 222 224 224 223 221 222 223 225 225 225 225 223 222 221 221 223 226 230 235 238 240 245 247 246 250 257 256 243 236 239 243 248 253 256 259 263 265 266 266 267 271 278 282 284 283 284 286 289 292 295 299 302 304 305 305 306
220 221 223 221 219 218 218 219 221 220 219 217 216 217 217 218 219 220 221 221 220 218 218 219 221 223 224 225 225 223 221 221 222 222 224 229 234 236 240 245 246 245 250 255 250 239 235 236 239 244 250 254 258 262 263 264 266 269 274 278 279 280 282 284 286 289 293 298 301 302 304 305 305 306
218 216 216 216 215 215 215 216 217 219 220 219 218 218 218 218 218 218 218 216 216 216 217 218 219 222 225 227 226 224 222 221 222 222 223 227 232 234 238 242 243 246 252 252 243 234 235 238 241 247 254 258 262 264 263 263 266 270 273 276 277 279 282 285 288 291 295 299 301 302 304 305 306 307
226 217 214 215 215 214 215 216 217 217 218 219 219 218 217 216 216 215 213 213 214 217 219 219 220 223 227 229 229 227 223 221 221 220 220 225 230 233 237 240 242 247 253 250 238 233 237 243 247 253 259 262 263 263 263 265 267 269 272 274 277 280 283 285 289 293 296 299 301 303 305 306 306 307
245 228 217 214 216 215 214 216 217 216 215 215 215 214 213 211 211 211 211 212 215 218 220 221 221 224 227 231 232 230 225 222 220 218 219 224 230 234 238 240 241 245 252 252 243 239 242 247 250 255 261 263 262 261 263 265 267 269 272 275 277 280 283 286 290 294 296 299 302 304 305 306 306 307
247 244 226 216 215 216 215 214 213 213 211 208 207 206 205 206 207 209 210 213 216 219 221 221 222 225 228 232 234 232 228 223 219 218 220 225 231 236 240 241 241 245 251 253 247 242 243 246 251 258 262 262 260 260 262 265 267 269 272 274 277 280 284 288 292 294 297 300 302 304 305 305 306 307
226 234 233 222 216 215 214 212 209 207 205 203 201 201 202 204 207 208 211 214 217 219 221 222 224 227 231 233 233 231 228 223 219 219 222 227 234 240 242 242 242 245 248 248 244 240 242 249 255 260 261 259 258 260 262 264 267 269 271 274 277 280 285 289 292 295 298 301 302 304 304 305 307 309
215 216 224 226 220 215 213 212 208 204 202 202 201 201 202 204 206 208 211 215 217 219 221 222 225 229 232 233 233 231 226 220 217 217 220 225 233 239 241 239 238 240 243 245 245 245 249 255 257 257 257 257 258 261 262 264 267 270 272 275 278 282 286 291 294 296 299 301 302 303 304 306 308 310
218 215 218 223 223 218 215 212 209 205 204 205 205 205 205 206 208 211 214 216 219 220 222 224 227 229 230 231 232 228 221 214 212 214 219 226 233 237 237 235 236 239 244 249 252 253 254 255 256 256 257 258 258 260 264 267 268 270 273 277 282 286 290 292 295 297 299 301 302 304 305 307 309 310
225 223 221 221 221 219 216 214 212 210 209 209 209 209 209 211 214 216 218 219 221 223 225 226 226 226 227 230 229 223 214 208 208 212 220 227 230 232 234 237 241 245 250 254 255 253 251 252 255 257 257 256 257 261 265 268 269 272 275 280 285 290 292 294 296 298 299 301 302 304 306 308 309 310
224 223 221 219 218 216 213 212 212 213 212 213 213 214 215 217 219 220 222 223 224 224 223 223 222 223 226 227 222 212 206 204 208 215 222 226 227 231 237 241 244 247 251 252 249 246 246 249 253 255 255 256 260 263 265 267 271 276 281 286 290 293 294 296 297 298 300 302 303 305 307 308 309 310
213 210 208 206 206 207 207 208 211 214 213 211 213 215 216 218 220 221 222 222 220 218 219 220 221 223 223 217 206 198 197 201 210 216 219 222 228 234 237 238 239 241 242 241 240 240 244 248 251 252 255 259 262 264 265 269 274 281 287 291 293 294 296 297 299 300 302 303 305 307 308 308 309 310